| time (UTC) | temp C | wind direction | speed KPH | gust KPH | rain 1hr cm | rain 24hr cm | rain mn cm | humidity % | barometer mb |
| 20260505160641 | 24 | 9 | 4.8 | 9.7 | 0.00 | 0.00 | 0.00 | 47 | 1002.7 |
| 20260505160138 | 24 | 45 | 3.2 | 8.0 | 0.00 | 0.00 | 0.00 | 47 | 1002.9 |
| 20260505153118 | 23 | 332 | 4.8 | 14.5 | 0.00 | 0.00 | 0.00 | 48 | 1003.4 |
| 20260505152614 | 23 | 86 | 3.2 | 12.9 | 0.00 | 0.00 | 0.00 | 47 | 1003.4 |
| 20260505152110 | 23 | 35 | 1.6 | 8.0 | 0.00 | 0.00 | 0.00 | 50 | 1003.2 |
| 20260505151606 | 22 | 43 | 3.2 | 8.0 | 0.00 | 0.00 | 0.00 | 50 | 1003.2 |
| 20260505151103 | 23 | 170 | 6.4 | 9.7 | 0.00 | 0.00 | 0.00 | 48 | 1003.3 |
| 20260505150559 | 22 | 14 | 1.6 | 9.7 | 0.00 | 0.00 | 0.00 | 49 | 1003.4 |
| 20260505140525 | 20 | 36 | 1.6 | 3.2 | 0.00 | 0.00 | 0.00 | 52 | 1003.6 |
| 20260505124938 | 17 | 63 | 1.6 | 4.8 | 0.00 | 0.00 | 0.00 | 59 | 1004.3 |
| 20260505124435 | 17 | 342 | 3.2 | 11.3 | 0.00 | 0.00 | 0.00 | 59 | 1004.4 |
| 20260505123931 | 17 | 352 | 3.2 | 8.0 | 0.00 | 0.00 | 0.00 | 60 | 1004.4 |
| 20260505123428 | 16 | 8 | 1.6 | 3.2 | 0.00 | 0.00 | 0.00 | 62 | 1004.4 |
| 20260505122923 | 16 | 66 | 1.6 | 3.2 | 0.00 | 0.00 | 0.00 | 66 | 1004.5 |
| 20260505122421 | 15 | 25 | 1.6 | 3.2 | 0.00 | 0.00 | 0.00 | 66 | 1004.2 |
| 20260505121918 | 15 | 16 | 0.0 | 1.6 | 0.00 | 0.00 | 0.00 | 67 | 1004.4 |
| 20260505121415 | 15 | 16 | 1.6 | 1.6 | 0.00 | 0.00 | 0.00 | 69 | 1004.3 |
| 20260505120911 | 14 | 356 | 1.6 | 3.2 | 0.00 | 0.00 | 0.00 | 74 | 1004.2 |
| 20260505120407 | 13 | 7 | 0.0 | 1.6 | 0.00 | 0.00 | 0.00 | 82 | 1004.1 |
| 20260505115906 | 13 | 7 | 0.0 | 1.6 | 0.00 | 0.00 | 0.00 | 84 | 1003.9 |
| 20260505115403 | 12 | 7 | 0.0 | 0.0 | 0.00 | 0.00 | 0.00 | 85 | 1003.8 |
| 20260505114901 | 11 | 6 | 0.0 | 0.0 | 0.00 | 0.00 | 0.00 | 89 | 1004.1 |
| 20260505114357 | 11 | 6 | 0.0 | 0.0 | 0.00 | 0.00 | 0.00 | 89 | 1004.2 |
| 20260505113853 | 11 | 6 | 0.0 | 0.0 | 0.00 | 0.00 | 0.00 | 90 | 1004.1 |
| 20260505113350 | 10 | 6 | 0.0 | 1.6 | 0.00 | 0.00 | 0.00 | 92 | 1004.3 |
| 20260505112846 | 10 | 6 | 0.0 | 0.0 | 0.00 | 0.00 | 0.00 | 92 | 1004.3 |
| 20260505112344 | 9 | 6 | 0.0 | 0.0 | 0.00 | 0.00 | 0.00 | 92 | 1004.2 |
| 20260505111839 | 8 | 6 | 0.0 | 0.0 | 0.00 | 0.00 | 0.00 | 93 | 1004.4 |
| 20260505111335 | 8 | 6 | 0.0 | 0.0 | 0.00 | 0.00 | 0.00 | 94 | 1004.2 |
| 20260505110831 | 7 | 6 | 0.0 | 0.0 | 0.00 | 0.00 | 0.00 | 96 | 1004.3 |
| 20260505110329 | 7 | 6 | 0.0 | 1.6 | 0.00 | 0.00 | 0.00 | 97 | 1004.2 |
| 20260505101803 | 6 | 6 | 0.0 | 1.6 | 0.00 | 0.00 | 0.00 | 99 | 1004.4 |
| 20260505101258 | 6 | 6 | 0.0 | 0.0 | 0.00 | 0.00 | 0.00 | 99 | 1004.4 |
| 20260505100755 | 6 | 6 | 0.0 | 0.0 | 0.00 | 0.00 | 0.00 | 99 | 1004.6 |
| 20260505100252 | 5 | 6 | 0.0 | 0.0 | 0.00 | 0.00 | 0.00 | 99 | 1004.5 |
| 20260505095747 | 6 | 6 | 0.0 | 0.0 | 0.00 | 0.00 | 0.00 | 98 | 1004.5 |
| 20260505095246 | 6 | 6 | 0.0 | 0.0 | 0.00 | 0.00 | 0.00 | 98 | 1004.7 |
| 20260505094740 | 6 | 6 | 0.0 | 0.0 | 0.00 | 0.00 | 0.00 | 98 | 1004.6 |
| 20260505094238 | 6 | 6 | 0.0 | 0.0 | 0.00 | 0.00 | 0.00 | 97 | 1004.2 |
| 20260505093734 | 6 | 6 | 0.0 | 0.0 | 0.00 | 0.00 | 0.00 | 96 | 1004.3 |
| 20260505093231 | 6 | 6 | 0.0 | 0.0 | 0.00 | 0.00 | 0.00 | 96 | 1004.6 |
| 20260505092728 | 6 | 6 | 0.0 | 0.0 | 0.00 | 0.00 | 0.00 | 96 | 1004.5 |
| 20260505092227 | 6 | 6 | 0.0 | 0.0 | 0.00 | 0.00 | 0.00 | 95 | 1004.5 |
| 20260505091723 | 6 | 6 | 0.0 | 1.6 | 0.00 | 0.00 | 0.00 | 95 | 1004.4 |
| 20260505091221 | 7 | 6 | 0.0 | 1.6 | 0.00 | 0.00 | 0.00 | 94 | 1004.6 |
| 20260505090719 | 7 | 6 | 0.0 | 1.6 | 0.00 | 0.00 | 0.00 | 94 | 1004.4 |
| 20260505090217 | 7 | 6 | 0.0 | 0.0 | 0.00 | 0.00 | 0.00 | 94 | 1004.3 |
| 20260505085714 | 7 | 6 | 0.0 | 1.6 | 0.00 | 0.00 | 0.00 | 93 | 1004.6 |
| 20260505085212 | 7 | 6 | 1.6 | 1.6 | 0.00 | 0.00 | 0.00 | 93 | 1004.4 |
| 20260505084709 | 7 | 6 | 0.0 | 0.0 | 0.00 | 0.00 | 0.00 | 93 | 1004.5 |
| 20260505084209 | 7 | 6 | 0.0 | 0.0 | 0.00 | 0.00 | 0.00 | 93 | 1004.5 |
| 20260505083705 | 7 | 6 | 0.0 | 1.6 | 0.00 | 0.00 | 0.00 | 92 | 1004.3 |
| 20260505083201 | 7 | 6 | 0.0 | 1.6 | 0.00 | 0.00 | 0.00 | 91 | 1004.7 |
| 20260505082657 | 7 | 6 | 0.0 | 1.6 | 0.00 | 0.00 | 0.00 | 92 | 1004.6 |
| 20260505082155 | 8 | 6 | 3.2 | 3.2 | 0.00 | 0.00 | 0.00 | 91 | 1004.5 |
| 20260505081650 | 8 | 6 | 1.6 | 4.8 | 0.00 | 0.00 | 0.00 | 90 | 1004.8 |
| 20260505081148 | 7 | 12 | 0.0 | 1.6 | 0.00 | 0.00 | 0.00 | 94 | 1004.9 |
| 20260505080645 | 7 | 12 | 0.0 | 1.6 | 0.00 | 0.00 | 0.00 | 94 | 1004.5 |
| 20260505080141 | 7 | 12 | 0.0 | 1.6 | 0.00 | 0.00 | 0.00 | 94 | 1004.7 |
| 20260505075637 | 7 | 12 | 0.0 | 0.0 | 0.00 | 0.00 | 0.00 | 94 | 1004.9 |
| 20260505075134 | 7 | 12 | 0.0 | 1.6 | 0.00 | 0.00 | 0.00 | 94 | 1004.8 |
| 20260505074631 | 7 | 12 | 0.0 | 0.0 | 0.00 | 0.00 | 0.00 | 94 | 1004.8 |
| 20260505074128 | 7 | 12 | 0.0 | 1.6 | 0.00 | 0.00 | 0.00 | 95 | 1004.7 |
| 20260505073626 | 7 | 12 | 0.0 | 0.0 | 0.00 | 0.00 | 0.00 | 96 | 1005.1 |
| 20260505073124 | 7 | 12 | 0.0 | 1.6 | 0.00 | 0.00 | 0.00 | 96 | 1004.9 |
| 20260505072619 | 7 | 12 | 0.0 | 1.6 | 0.00 | 0.00 | 0.00 | 96 | 1004.6 |
| 20260505072116 | 7 | 12 | 0.0 | 1.6 | 0.00 | 0.00 | 0.00 | 96 | 1004.6 |
| 20260505071611 | 6 | 12 | 0.0 | 1.6 | 0.00 | 0.00 | 0.00 | 97 | 1004.8 |
| 20260505071109 | 6 | 12 | 0.0 | 1.6 | 0.00 | 0.00 | 0.00 | 97 | 1004.7 |
| 20260505070606 | 6 | 12 | 3.2 | 3.2 | 0.00 | 0.00 | 0.00 | 96 | 1004.7 |
| 20260505065558 | 7 | 12 | 1.6 | 3.2 | 0.00 | 0.00 | 0.00 | 96 | 1004.8 |
| 20260505065055 | 6 | 12 | 1.6 | 3.2 | 0.00 | 0.00 | 0.00 | 96 | 1004.8 |
| 20260505064552 | 6 | 25 | 1.6 | 3.2 | 0.00 | 0.00 | 0.00 | 95 | 1004.9 |
| 20260505064051 | 7 | 12 | 3.2 | 3.2 | 0.00 | 0.00 | 0.00 | 94 | 1004.9 |
| 20260505063547 | 7 | 19 | 1.6 | 1.6 | 0.00 | 0.00 | 0.00 | 92 | 1004.9 |
| 20260505063043 | 6 | 9 | 1.6 | 3.2 | 0.00 | 0.00 | 0.00 | 92 | 1005.2 |
| 20260505062540 | 6 | 19 | 1.6 | 3.2 | 0.00 | 0.00 | 0.00 | 94 | 1005.0 |
| 20260505062037 | 6 | 20 | 1.6 | 3.2 | 0.00 | 0.00 | 0.00 | 94 | 1004.9 |
| 20260505061535 | 6 | 19 | 1.6 | 3.2 | 0.00 | 0.00 | 0.00 | 93 | 1004.9 |
| 20260505061032 | 6 | 19 | 1.6 | 1.6 | 0.00 | 0.00 | 0.00 | 95 | 1004.9 |
| 20260505060530 | 6 | 19 | 1.6 | 3.2 | 0.00 | 0.00 | 0.00 | 96 | 1004.8 |
| 20260505060026 | 5 | 28 | 1.6 | 3.2 | 0.00 | 0.00 | 0.00 | 95 | 1004.8 |
| 20260505055521 | 6 | 29 | 1.6 | 1.6 | 0.00 | 0.00 | 0.00 | 95 | 1004.9 |
| 20260505055018 | 6 | 29 | 1.6 | 1.6 | 0.00 | 0.00 | 0.00 | 93 | 1005.0 |
| 20260505054516 | 6 | 29 | 1.6 | 1.6 | 0.00 | 0.00 | 0.00 | 93 | 1004.9 |
| 20260505054014 | 6 | 29 | 1.6 | 1.6 | 0.00 | 0.00 | 0.00 | 93 | 1004.9 |
| 20260505053511 | 6 | 29 | 0.0 | 1.6 | 0.00 | 0.00 | 0.00 | 92 | 1004.8 |
| 20260505053008 | 6 | 29 | 0.0 | 1.6 | 0.00 | 0.00 | 0.00 | 92 | 1004.7 |
| 20260505052505 | 6 | 29 | 0.0 | 1.6 | 0.00 | 0.00 | 0.00 | 91 | 1004.9 |
| 20260505052002 | 6 | 29 | 0.0 | 0.0 | 0.00 | 0.00 | 0.00 | 91 | 1004.6 |
| 20260505051458 | 6 | 29 | 0.0 | 0.0 | 0.00 | 0.00 | 0.00 | 91 | 1004.8 |
| 20260505050957 | 6 | 29 | 0.0 | 0.0 | 0.00 | 0.00 | 0.00 | 90 | 1004.7 |
| 20260505050454 | 6 | 29 | 0.0 | 0.0 | 0.00 | 0.00 | 0.00 | 90 | 1004.7 |
| 20260505041422 | 7 | 29 | 0.0 | 0.0 | 0.00 | 0.00 | 0.00 | 87 | 1004.4 |
| 20260505040919 | 7 | 29 | 0.0 | 0.0 | 0.00 | 0.00 | 0.00 | 87 | 1004.2 |
| 20260505040417 | 7 | 29 | 0.0 | 0.0 | 0.00 | 0.00 | 0.00 | 87 | 1004.2 |
| 20260505035913 | 7 | 29 | 0.0 | 0.0 | 0.00 | 0.00 | 0.00 | 87 | 1004.3 |
| 20260505035409 | 7 | 29 | 0.0 | 1.6 | 0.00 | 0.00 | 0.00 | 87 | 1004.0 |
| 20260505034907 | 7 | 29 | 0.0 | 0.0 | 0.00 | 0.00 | 0.00 | 86 | 1004.2 |
| 20260505034403 | 8 | 29 | 0.0 | 0.0 | 0.00 | 0.00 | 0.00 | 85 | 1004.1 |
| 20260505033900 | 8 | 29 | 0.0 | 0.0 | 0.00 | 0.00 | 0.00 | 84 | 1004.2 |
| 20260505033357 | 8 | 29 | 0.0 | 0.0 | 0.00 | 0.00 | 0.00 | 84 | 1003.9 |
| 20260505032855 | 8 | 29 | 0.0 | 0.0 | 0.00 | 0.00 | 0.00 | 84 | 1003.9 |
| 20260505032352 | 8 | 29 | 0.0 | 0.0 | 0.00 | 0.00 | 0.00 | 83 | 1003.7 |
| 20260505031848 | 8 | 29 | 0.0 | 0.0 | 0.00 | 0.00 | 0.00 | 83 | 1003.7 |
| 20260505031345 | 9 | 29 | 0.0 | 0.0 | 0.00 | 0.00 | 0.00 | 82 | 1003.6 |
| 20260505030843 | 9 | 29 | 0.0 | 0.0 | 0.00 | 0.00 | 0.00 | 82 | 1003.7 |
| 20260505030338 | 9 | 29 | 0.0 | 0.0 | 0.00 | 0.00 | 0.00 | 82 | 1003.7 |
| 20260505025834 | 9 | 29 | 0.0 | 1.6 | 0.00 | 0.00 | 0.00 | 80 | 1003.7 |
| 20260505025332 | 10 | 29 | 0.0 | 0.0 | 0.00 | 0.00 | 0.00 | 80 | 1003.5 |
| 20260505024830 | 10 | 29 | 0.0 | 1.6 | 0.00 | 0.00 | 0.00 | 79 | 1003.7 |
| 20260505024327 | 10 | 29 | 0.0 | 0.0 | 0.00 | 0.00 | 0.00 | 79 | 1003.7 |
| 20260505023824 | 10 | 29 | 0.0 | 0.0 | 0.00 | 0.00 | 0.00 | 79 | 1003.7 |
| 20260505023321 | 10 | 29 | 0.0 | 0.0 | 0.00 | 0.00 | 0.00 | 77 | 1003.9 |
| 20260505022819 | 10 | 29 | 0.0 | 0.0 | 0.00 | 0.00 | 0.00 | 77 | 1003.8 |
| 20260505022315 | 10 | 29 | 0.0 | 0.0 | 0.00 | 0.00 | 0.00 | 77 | 1003.8 |
| 20260505021813 | 10 | 29 | 0.0 | 0.0 | 0.00 | 0.00 | 0.00 | 76 | 1003.7 |
| 20260505021309 | 10 | 30 | 0.0 | 0.0 | 0.00 | 0.00 | 0.00 | 75 | 1003.6 |
| 20260505020805 | 10 | 29 | 0.0 | 0.0 | 0.00 | 0.00 | 0.00 | 73 | 1003.7 |
| 20260505020301 | 11 | 29 | 0.0 | 0.0 | 0.00 | 0.00 | 0.00 | 72 | 1003.7 |
| 20260505015758 | 11 | 29 | 0.0 | 0.0 | 0.00 | 0.00 | 0.00 | 74 | 1003.5 |
| 20260505015255 | 11 | 29 | 0.0 | 0.0 | 0.00 | 0.00 | 0.00 | 72 | 1003.6 |
| 20260505014752 | 11 | 29 | 0.0 | 0.0 | 0.00 | 0.00 | 0.00 | 73 | 1003.6 |
| 20260505014249 | 11 | 29 | 0.0 | 0.0 | 0.00 | 0.00 | 0.00 | 72 | 1003.8 |
| 20260505013746 | 11 | 29 | 0.0 | 0.0 | 0.00 | 0.00 | 0.00 | 71 | 1003.8 |
| 20260505013243 | 12 | 29 | 0.0 | 0.0 | 0.00 | 0.00 | 0.00 | 71 | 1003.5 |
| 20260505012741 | 12 | 29 | 0.0 | 0.0 | 0.00 | 0.00 | 0.00 | 70 | 1003.3 |
| 20260505012238 | 12 | 29 | 0.0 | 0.0 | 0.00 | 0.00 | 0.00 | 69 | 1003.2 |
| 20260505011733 | 12 | 29 | 0.0 | 0.0 | 0.00 | 0.00 | 0.00 | 72 | 1003.4 |
| 20260505011231 | 12 | 29 | 0.0 | 0.0 | 0.00 | 0.00 | 0.00 | 69 | 1003.3 |
| 20260505010726 | 12 | 30 | 0.0 | 0.0 | 0.00 | 0.00 | 0.00 | 70 | 1003.2 |
| 20260505010223 | 12 | 30 | 0.0 | 0.0 | 0.00 | 0.00 | 0.00 | 68 | 1003.2 |
| 20260505005720 | 12 | 30 | 0.0 | 0.0 | 0.00 | 0.00 | 0.00 | 68 | 1003.1 |
| 20260505005217 | 13 | 30 | 0.0 | 0.0 | 0.00 | 0.00 | 0.00 | 66 | 1003.0 |
| 20260505004714 | 13 | 29 | 0.0 | 0.0 | 0.00 | 0.00 | 0.00 | 68 | 1002.9 |
| 20260505004210 | 13 | 29 | 0.0 | 0.0 | 0.00 | 0.00 | 0.00 | 66 | 1002.9 |
| 20260505003708 | 13 | 29 | 0.0 | 0.0 | 0.00 | 0.00 | 0.00 | 67 | 1002.6 |
| 20260505003206 | 13 | 29 | 0.0 | 0.0 | 0.00 | 0.00 | 0.00 | 65 | 1002.5 |
| 20260505002701 | 13 | 30 | 0.0 | 0.0 | 0.00 | 0.00 | 0.00 | 65 | 1002.6 |
| 20260505002159 | 13 | 30 | 0.0 | 0.0 | 0.00 | 0.00 | 0.00 | 64 | 1002.5 |
| 20260505001656 | 14 | 30 | 0.0 | 0.0 | 0.00 | 0.00 | 0.00 | 63 | 1002.3 |
| 20260505001154 | 14 | 30 | 0.0 | 0.0 | 0.00 | 0.00 | 0.00 | 62 | 1002.3 |
| 20260505000650 | 15 | 30 | 0.0 | 0.0 | 0.00 | 0.00 | 0.00 | 61 | 1002.4 |
| 20260505000148 | 15 | 30 | 0.0 | 1.6 | 0.00 | 0.00 | 0.00 | 60 | 1002.1 |
| 20260504235644 | 15 | 30 | 0.0 | 1.6 | 0.00 | 0.00 | 0.00 | 59 | 1002.1 |
| 20260504235141 | 15 | 30 | 0.0 | 0.0 | 0.00 | 0.00 | 0.00 | 58 | 1002.1 |
| 20260504234638 | 15 | 30 | 0.0 | 0.0 | 0.00 | 0.00 | 0.00 | 56 | 1002.1 |
| 20260504234136 | 16 | 30 | 0.0 | 0.0 | 0.00 | 0.00 | 0.00 | 55 | 1001.8 |
| 20260504233631 | 16 | 29 | 0.0 | 0.0 | 0.00 | 0.00 | 0.00 | 51 | 1001.7 |
| 20260504233127 | 17 | 29 | 0.0 | 0.0 | 0.00 | 0.00 | 0.00 | 49 | 1001.6 |
| 20260504232625 | 17 | 29 | 0.0 | 1.6 | 0.00 | 0.00 | 0.00 | 49 | 1001.5 |
| 20260504232122 | 17 | 50 | 1.6 | 4.8 | 0.00 | 0.00 | 0.00 | 46 | 1001.5 |
| 20260504231619 | 17 | 20 | 0.0 | 0.0 | 0.00 | 0.00 | 0.00 | 46 | 1001.6 |
| 20260504231115 | 18 | 20 | 0.0 | 1.6 | 0.00 | 0.00 | 0.00 | 45 | 1001.5 |
| 20260504230611 | 18 | 20 | 1.6 | 1.6 | 0.00 | 0.00 | 0.00 | 46 | 1001.5 |
| 20260504230110 | 18 | 19 | 0.0 | 0.0 | 0.00 | 0.00 | 0.00 | 44 | 1001.4 |
| 20260504225608 | 18 | 22 | 0.0 | 1.6 | 0.00 | 0.00 | 0.00 | 44 | 1001.3 |
| 20260504225104 | 18 | 10 | 3.2 | 4.8 | 0.00 | 0.00 | 0.00 | 41 | 1001.5 |
| 20260504224600 | 19 | 334 | 4.8 | 8.0 | 0.00 | 0.00 | 0.00 | 41 | 1001.4 |
| 20260504224058 | 19 | 73 | 3.2 | 8.0 | 0.00 | 0.00 | 0.00 | 40 | 1001.3 |
| 20260504223555 | 20 | 34 | 1.6 | 4.8 | 0.00 | 0.00 | 0.00 | 41 | 1001.1 |
| 20260504223050 | 20 | 288 | 6.4 | 12.9 | 0.00 | 0.00 | 0.00 | 39 | 1001.1 |
| 20260504222547 | 20 | 25 | 1.6 | 3.2 | 0.00 | 0.00 | 0.00 | 40 | 1001.1 |
| 20260504222045 | 20 | 30 | 1.6 | 4.8 | 0.00 | 0.00 | 0.00 | 39 | 1001.0 |
| 20260504221542 | 20 | 355 | 3.2 | 14.5 | 0.00 | 0.00 | 0.00 | 40 | 1001.1 |
| 20260504221039 | 20 | 38 | 3.2 | 3.2 | 0.00 | 0.00 | 0.00 | 40 | 1001.2 |
| 20260504220535 | 20 | 21 | 3.2 | 4.8 | 0.00 | 0.00 | 0.00 | 39 | 1001.1 |
| 20260504220032 | 20 | 47 | 4.8 | 8.0 | 0.00 | 0.00 | 0.00 | 38 | 1001.1 |
| 20260504215528 | 20 | 1 | 4.8 | 24.1 | 0.00 | 0.00 | 0.00 | 37 | 1001.3 |
| 20260504215026 | 20 | 17 | 1.6 | 3.2 | 0.00 | 0.00 | 0.00 | 36 | 1001.1 |
| 20260504214522 | 20 | 5 | 3.2 | 14.5 | 0.00 | 0.00 | 0.00 | 37 | 1001.2 |
| 20260504214018 | 20 | 13 | 3.2 | 8.0 | 0.00 | 0.00 | 0.00 | 37 | 1001.3 |
| 20260504213515 | 20 | 321 | 12.9 | 16.1 | 0.00 | 0.00 | 0.00 | 38 | 1001.2 |
| 20260504213012 | 20 | 52 | 3.2 | 11.3 | 0.00 | 0.00 | 0.00 | 39 | 1001.1 |
| 20260504212508 | 20 | 335 | 3.2 | 9.7 | 0.00 | 0.00 | 0.00 | 38 | 1001.2 |
| 20260504212006 | 19 | 35 | 6.4 | 9.7 | 0.00 | 0.00 | 0.00 | 39 | 1001.2 |
| 20260504211502 | 20 | 75 | 6.4 | 11.3 | 0.00 | 0.00 | 0.00 | 39 | 1001.2 |
| 20260504211000 | 20 | 33 | 1.6 | 4.8 | 0.00 | 0.00 | 0.00 | 40 | 1001.1 |
| 20260504210456 | 20 | 57 | 1.6 | 4.8 | 0.00 | 0.00 | 0.00 | 42 | 1001.3 |
| 20260504205953 | 20 | 41 | 1.6 | 4.8 | 0.00 | 0.00 | 0.00 | 42 | 1001.4 |
| 20260504205450 | 20 | 0 | 3.2 | 3.2 | 0.00 | 0.00 | 0.00 | 42 | 1001.2 |
| 20260504204949 | 20 | 235 | 3.2 | 8.0 | 0.00 | 0.00 | 0.00 | 40 | 1001.3 |
| 20260504204447 | 21 | 261 | 4.8 | 9.7 | 0.00 | 0.00 | 0.00 | 40 | 1001.4 |
| 20260504203945 | 20 | 94 | 3.2 | 3.2 | 0.00 | 0.00 | 0.00 | 41 | 1001.1 |
| 20260504203443 | 20 | 39 | 1.6 | 12.9 | 0.00 | 0.00 | 0.00 | 42 | 1001.3 |
| 20260504202939 | 20 | 279 | 6.4 | 9.7 | 0.00 | 0.00 | 0.00 | 40 | 1001.2 |
| 20260504202435 | 20 | 31 | 3.2 | 11.3 | 0.00 | 0.00 | 0.00 | 41 | 1001.3 |
| 20260504201932 | 19 | 29 | 4.8 | 14.5 | 0.00 | 0.00 | 0.00 | 43 | 1001.4 |
| 20260504201430 | 19 | 12 | 4.8 | 8.0 | 0.00 | 0.00 | 0.00 | 44 | 1001.3 |
| 20260504200927 | 19 | 279 | 6.4 | 9.7 | 0.00 | 0.00 | 0.00 | 42 | 1001.4 |
| 20260504200424 | 19 | 320 | 4.8 | 11.3 | 0.00 | 0.00 | 0.00 | 44 | 1001.4 |
| 20260504195920 | 19 | 311 | 6.4 | 9.7 | 0.00 | 0.00 | 0.00 | 43 | 1001.3 |
| 20260504195416 | 18 | 355 | 0.0 | 16.1 | 0.00 | 0.00 | 0.00 | 44 | 1001.3 |
| 20260504194913 | 19 | 13 | 1.6 | 8.0 | 0.00 | 0.00 | 0.00 | 44 | 1001.5 |
| 20260504194409 | 20 | 83 | 4.8 | 11.3 | 0.00 | 0.00 | 0.00 | 44 | 1001.5 |
| 20260504193905 | 20 | 310 | 3.2 | 8.0 | 0.00 | 0.00 | 0.00 | 43 | 1001.6 |
| 20260504193403 | 19 | 38 | 1.6 | 11.3 | 0.00 | 0.00 | 0.00 | 45 | 1001.6 |
| 20260504192901 | 19 | 112 | 8.0 | 16.1 | 0.00 | 0.00 | 0.00 | 43 | 1001.7 |
| 20260504192358 | 19 | 52 | 3.2 | 8.0 | 0.00 | 0.00 | 0.00 | 45 | 1002.0 |
| 20260504191856 | 18 | 15 | 0.0 | 16.1 | 0.00 | 0.00 | 0.00 | 46 | 1001.9 |
| 20260504191354 | 18 | 21 | 1.6 | 11.3 | 0.00 | 0.00 | 0.00 | 46 | 1002.0 |
| 20260504190849 | 18 | 19 | 1.6 | 3.2 | 0.00 | 0.00 | 0.00 | 47 | 1001.9 |
| 20260504190345 | 18 | 8 | 3.2 | 12.9 | 0.00 | 0.00 | 0.00 | 47 | 1002.4 |
| 20260504185842 | 18 | 11 | 3.2 | 9.7 | 0.00 | 0.00 | 0.00 | 47 | 1002.1 |
| 20260504185339 | 18 | 17 | 6.4 | 8.0 | 0.00 | 0.00 | 0.00 | 46 | 1002.1 |
| 20260504184835 | 18 | 237 | 4.8 | 9.7 | 0.00 | 0.00 | 0.00 | 47 | 1002.1 |
| 20260504184331 | 17 | 161 | 4.8 | 8.0 | 0.00 | 0.00 | 0.00 | 47 | 1002.2 |
| 20260504183827 | 17 | 341 | 4.8 | 9.7 | 0.00 | 0.00 | 0.00 | 49 | 1002.2 |
| 20260504183325 | 18 | 260 | 6.4 | 12.9 | 0.00 | 0.00 | 0.00 | 48 | 1002.2 |
| 20260504182822 | 17 | 206 | 9.7 | 12.9 | 0.00 | 0.00 | 0.00 | 50 | 1002.3 |
| 20260504182320 | 17 | 309 | 3.2 | 4.8 | 0.00 | 0.00 | 0.00 | 51 | 1002.4 |
| 20260504181816 | 16 | 17 | 1.6 | 3.2 | 0.00 | 0.00 | 0.00 | 53 | 1002.5 |
| 20260504181314 | 16 | 27 | 3.2 | 3.2 | 0.00 | 0.00 | 0.00 | 53 | 1002.6 |
| 20260504180813 | 16 | 15 | 4.8 | 8.0 | 0.00 | 0.00 | 0.00 | 53 | 1002.4 |
| 20260504180311 | 16 | 17 | 4.8 | 8.0 | 0.00 | 0.00 | 0.00 | 55 | 1002.8 |
| 20260504175809 | 15 | 26 | 3.2 | 8.0 | 0.00 | 0.00 | 0.00 | 57 | 1002.7 |
| 20260504175305 | 15 | 45 | 1.6 | 3.2 | 0.00 | 0.00 | 0.00 | 59 | 1002.6 |
| 20260504174804 | 15 | 26 | 1.6 | 4.8 | 0.00 | 0.00 | 0.00 | 58 | 1002.9 |
| 20260504174301 | 15 | 9 | 3.2 | 3.2 | 0.00 | 0.00 | 0.00 | 58 | 1002.9 |
| 20260504173757 | 15 | 35 | 1.6 | 3.2 | 0.00 | 0.00 | 0.00 | 58 | 1002.8 |
| 20260504173254 | 15 | 39 | 3.2 | 9.7 | 0.00 | 0.00 | 0.00 | 58 | 1002.9 |
| 20260504172751 | 15 | 354 | 6.4 | 9.7 | 0.00 | 0.00 | 0.00 | 58 | 1003.0 |
| 20260504172247 | 15 | 26 | 8.0 | 9.7 | 0.00 | 0.00 | 0.00 | 55 | 1002.8 |
| 20260504171743 | 15 | 19 | 3.2 | 4.8 | 0.00 | 0.00 | 0.00 | 55 | 1002.7 |
| 20260504171241 | 16 | 32 | 9.7 | 12.9 | 0.00 | 0.00 | 0.00 | 55 | 1002.8 |
| 20260504170738 | 15 | 17 | 11.3 | 16.1 | 0.00 | 0.00 | 0.00 | 55 | 1002.8 |
| 20260504170235 | 15 | 33 | 3.2 | 12.9 | 0.00 | 0.00 | 0.00 | 56 | 1002.8 |